TimeEDT,TemperatureF,Dew PointF,Humidity,Sea Level PressureIn,VisibilityMPH,Wind Direction,Wind SpeedMPH,Gust SpeedMPH,PrecipitationIn,Events,Conditions,WindDirDegrees,DateUTC
12:15 AM,38.7,34.3,84,29.89,10.0,West,8.1,-,N/A,,Clear,260,2013-05-12 04:15:00
12:34 AM,38.3,34.7,87,29.90,10.0,West,9.2,-,N/A,,Clear,270,2013-05-12 04:34:00
12:55 AM,37.8,34.7,89,29.89,10.0,West,6.9,-,N/A,,Clear,260,2013-05-12 04:55:00
1:15 AM,37.0,34.7,91,29.89,10.0,WSW,5.8,-,N/A,,Clear,240,2013-05-12 05:15:00
1:34 AM,36.5,34.7,93,29.89,10.0,WSW,6.9,-,N/A,,Clear,250,2013-05-12 05:34:00
1:55 AM,36.7,34.9,93,29.88,10.0,WSW,6.9,-,N/A,,Clear,240,2013-05-12 05:55:00
2:15 AM,36.7,34.7,93,29.88,10.0,WSW,9.2,-,N/A,,Clear,250,2013-05-12 06:15:00
2:34 AM,36.9,34.7,92,29.88,10.0,WSW,12.7,-,N/A,,Clear,250,2013-05-12 06:34:00
2:55 AM,37.0,34.0,89,29.88,10.0,West,10.4,16.1,N/A,,Clear,260,2013-05-12 06:55:00
3:15 AM,36.9,33.8,89,29.88,10.0,West,10.4,-,N/A,,Clear,260,2013-05-12 07:15:00
3:35 AM,36.9,32.9,86,29.87,10.0,West,9.2,-,N/A,,Clear,260,2013-05-12 07:35:00
3:55 AM,36.5,32.5,86,29.87,10.0,WSW,6.9,-,N/A,,Clear,250,2013-05-12 07:55:00
4:15 AM,36.0,32.9,89,29.87,10.0,WSW,9.2,-,N/A,,Clear,250,2013-05-12 08:15:00
4:35 AM,35.8,33.1,90,29.87,10.0,WSW,8.1,-,N/A,,Clear,240,2013-05-12 08:35:00
4:55 AM,36.0,33.6,91,29.87,10.0,WSW,8.1,-,N/A,,Scattered Clouds,250,2013-05-12 08:55:00
5:35 AM,35.8,33.3,91,29.87,10.0,West,8.1,-,N/A,,Clear,270,2013-05-12 09:35:00
5:55 AM,36.7,33.3,87,29.87,10.0,West,13.8,19.6,N/A,,Scattered Clouds,280,2013-05-12 09:55:00
6:14 AM,37.4,32.4,82,29.88,10.0,West,15.0,23.0,N/A,,Overcast,280,2013-05-12 10:14:00
6:35 AM,37.4,32.0,81,29.88,10.0,West,11.5,18.4,N/A,,Overcast,270,2013-05-12 10:35:00
6:55 AM,37.6,31.6,79,29.88,10.0,West,16.1,19.6,N/A,,Overcast,270,2013-05-12 10:55:00
7:14 AM,38.3,30.9,75,29.89,10.0,WNW,13.8,24.2,N/A,,Overcast,290,2013-05-12 11:14:00
7:35 AM,38.5,31.1,75,29.89,10.0,West,13.8,24.2,N/A,,Overcast,280,2013-05-12 11:35:00
7:55 AM,38.8,31.3,74,29.89,10.0,West,10.4,-,N/A,,Overcast,280,2013-05-12 11:55:00
8:15 AM,39.0,30.9,73,29.90,10.0,West,11.5,25.3,N/A,,Overcast,280,2013-05-12 12:15:00
8:35 AM,39.4,31.1,72,29.91,10.0,West,12.7,20.7,N/A,,Overcast,270,2013-05-12 12:35:00
8:55 AM,39.4,30.6,71,29.92,10.0,West,17.3,25.3,N/A,,Overcast,280,2013-05-12 12:55:00
9:15 AM,39.0,30.6,72,29.92,10.0,West,16.1,24.2,N/A,,Overcast,280,2013-05-12 13:15:00
9:35 AM,42.1,31.5,66,29.92,10.0,West,16.1,20.7,N/A,,Mostly Cloudy,260,2013-05-12 13:35:00
9:55 AM,40.8,29.8,65,29.93,10.0,West,16.1,25.3,N/A,,Overcast,280,2013-05-12 13:55:00
10:15 AM,41.4,29.8,64,29.93,10.0,WNW,12.7,23.0,N/A,,Overcast,300,2013-05-12 14:15:00
10:35 AM,41.5,30.0,64,29.93,10.0,West,18.4,23.0,N/A,,Overcast,280,2013-05-12 14:35:00
10:54 AM,41.9,29.8,62,29.93,10.0,WNW,18.4,27.6,N/A,,Overcast,290,2013-05-12 14:54:00
11:15 AM,42.8,30.7,62,29.93,10.0,WNW,19.6,25.3,N/A,,Overcast,290,2013-05-12 15:15:00
11:35 AM,44.2,30.2,58,29.93,10.0,WNW,16.1,27.6,N/A,,Mostly Cloudy,290,2013-05-12 15:35:00
11:54 AM,44.2,30.7,59,29.94,10.0,WNW,13.8,25.3,N/A,,Mostly Cloudy,290,2013-05-12 15:54:00
12:15 PM,46.2,31.1,56,29.94,10.0,WNW,13.8,19.6,N/A,,Overcast,290,2013-05-12 16:15:00
12:35 PM,46.2,30.9,55,29.95,10.0,WNW,18.4,25.3,N/A,,Mostly Cloudy,290,2013-05-12 16:35:00
12:54 PM,46.0,31.1,56,29.94,10.0,West,21.9,26.5,N/A,,Overcast,280,2013-05-12 16:54:00
1:15 PM,46.0,29.7,53,29.95,10.0,West,20.7,28.8,N/A,,Overcast,280,2013-05-12 17:15:00
1:35 PM,47.8,29.5,49,29.95,10.0,West,24.2,29.9,N/A,,Overcast,270,2013-05-12 17:35:00
1:54 PM,46.8,27.9,48,29.95,10.0,West,21.9,31.1,N/A,,Overcast,280,2013-05-12 17:54:00
2:15 PM,46.8,29.5,51,29.96,10.0,West,20.7,25.3,N/A,,Overcast,270,2013-05-12 18:15:00
2:35 PM,46.2,27.0,47,29.96,10.0,West,17.3,27.6,N/A,,Overcast,280,2013-05-12 18:35:00
2:55 PM,47.1,29.1,50,29.96,10.0,WNW,24.2,34.5,N/A,,Overcast,290,2013-05-12 18:55:00
3:15 PM,46.2,29.3,52,29.97,10.0,WNW,19.6,32.2,N/A,,Overcast,290,2013-05-12 19:15:00
3:34 PM,44.6,29.3,55,29.98,10.0,WNW,19.6,28.8,N/A,,Overcast,300,2013-05-12 19:34:00
3:55 PM,44.8,29.1,54,29.99,10.0,WNW,19.6,31.1,N/A,,Overcast,300,2013-05-12 19:55:00
4:15 PM,44.6,29.3,55,29.99,10.0,WNW,21.9,29.9,N/A,,Overcast,300,2013-05-12 20:15:00
4:35 PM,43.2,28.2,56,30.00,10.0,WNW,18.4,29.9,N/A,,Overcast,290,2013-05-12 20:35:00
4:55 PM,43.3,26.4,51,30.00,10.0,WNW,19.6,29.9,N/A,,Overcast,300,2013-05-12 20:55:00
5:15 PM,43.2,26.2,51,30.01,10.0,West,17.3,29.9,N/A,,Overcast,280,2013-05-12 21:15:00
5:35 PM,43.0,26.6,52,30.01,10.0,WNW,16.1,27.6,N/A,,Overcast,300,2013-05-12 21:35:00
5:55 PM,43.0,27.5,54,30.02,10.0,WNW,16.1,21.9,N/A,,Overcast,290,2013-05-12 21:55:00
6:15 PM,43.5,27.0,52,30.02,10.0,WNW,15.0,23.0,N/A,,Overcast,300,2013-05-12 22:15:00
6:35 PM,42.6,26.2,52,30.02,10.0,WNW,15.0,24.2,N/A,,Overcast,300,2013-05-12 22:35:00
6:55 PM,41.9,27.5,57,30.03,10.0,NW,16.1,21.9,N/A,,Overcast,310,2013-05-12 22:55:00
7:14 PM,41.9,27.3,56,30.03,10.0,NW,11.5,18.4,N/A,,Overcast,310,2013-05-12 23:14:00
7:35 PM,41.9,27.1,56,30.04,10.0,NW,12.7,17.3,N/A,,Overcast,310,2013-05-12 23:35:00
7:55 PM,42.4,25.5,51,30.04,10.0,NNW,13.8,18.4,N/A,,Overcast,330,2013-05-12 23:55:00
8:14 PM,41.2,24.6,52,30.05,10.0,NW,11.5,-,N/A,,Mostly Cloudy,320,2013-05-13 00:14:00
8:35 PM,39.7,24.6,55,30.05,10.0,NW,8.1,-,N/A,,Scattered Clouds,310,2013-05-13 00:35:00
8:55 PM,38.7,25.0,58,30.05,10.0,NW,5.8,-,N/A,,Clear,320,2013-05-13 00:55:00
9:14 PM,38.3,25.3,60,30.06,10.0,NW,5.8,-,N/A,,Clear,320,2013-05-13 01:14:00
9:35 PM,36.7,25.9,65,30.06,10.0,NW,3.5,-,N/A,,Clear,310,2013-05-13 01:35:00
9:54 PM,36.5,26.2,66,30.07,10.0,WNW,3.5,-,N/A,,Clear,300,2013-05-13 01:54:00
10:15 PM,36.5,26.2,66,30.08,10.0,Calm,Calm,-,N/A,,Clear,0,2013-05-13 02:15:00
10:35 PM,34.7,27.0,73,30.07,10.0,Calm,Calm,-,N/A,,Clear,0,2013-05-13 02:35:00
10:54 PM,34.9,26.8,72,30.07,10.0,Calm,Calm,-,N/A,,Clear,0,2013-05-13 02:54:00
11:15 PM,34.0,27.1,76,30.07,10.0,Calm,Calm,-,N/A,,Clear,0,2013-05-13 03:15:00
11:35 PM,33.1,27.1,79,30.08,10.0,Calm,Calm,-,N/A,,Clear,0,2013-05-13 03:35:00
11:55 PM,31.8,26.8,82,30.08,10.0,Calm,Calm,-,N/A,,Clear,0,2013-05-13 03:55:00